View from above orbital plane
|
View from above satellite
|
Ground track
|
The orbit data is extracted from the following two-line orbital elements,
1 45875U 20046C 21058.81338284 0.00002500 00000-0 20858-3 0 00
2 45875 53.9864 21.1558 0014959 159.0754 200.9245 14.98043802 08
Epoch (UTC): | 27 February 2021 19:31:16 |
Eccentricity: | 0.0014959 |
inclination: | 53.9864° |
perigee height: | 562 km |
apogee height: | 583 km |
right ascension of ascending node: | 21.1558° |
argument of perigee: | 159.0754° |
revolutions per day: | 14.98043802 |
mean anomaly at epoch: | 200.9245° |
orbit number at epoch: | 0 |
The dashed part of the orbit path shows where the satellite is in the earth's shadow,
|
|